| time (UTC) | temp F | wind direction | speed MPH | gust MPH | rain 1hr in | rain 24hr in | rain mn in | humidity % | barometer mb |
| 20260906174344 | 72 | 46 | 0.0 | 0.0 | 0.01 | 0.05 | 0.05 | 81 | 1014.3 |
| 20260906173837 | 72 | 10 | 0.0 | 0.0 | 0.00 | 0.04 | 0.04 | 80 | 1014.3 |
| 20260906173519 | 73 | 26 | 0.0 | 0.0 | 0.00 | 0.04 | 0.04 | 80 | 1014.2 |
| 20260906173410 | 72 | 33 | 0.0 | 0.0 | 0.00 | 0.04 | 0.04 | 80 | 1014.2 |
| 20260906172316 | 73 | 305 | 0.0 | 0.0 | 0.00 | 0.04 | 0.04 | 79 | 1014.1 |
| 20260906171809 | 73 | 344 | 0.0 | 0.0 | 0.00 | 0.04 | 0.04 | 79 | 1014.1 |
| 20260906171308 | 73 | 309 | 0.0 | 0.0 | 0.00 | 0.04 | 0.04 | 79 | 1014.0 |
| 20260906170757 | 73 | 18 | 0.0 | 0.0 | 0.00 | 0.04 | 0.04 | 78 | 1014.0 |
| 20260906170253 | 73 | 355 | 0.0 | 0.0 | 0.00 | 0.04 | 0.04 | 77 | 1013.9 |
| 20260906170010 | 73 | 342 | 0.0 | 0.0 | 0.00 | 0.04 | 0.04 | 76 | 1013.8 |
| 20260906165238 | 73 | 9 | 0.0 | 0.0 | 0.00 | 0.04 | 0.04 | 76 | 1013.7 |
| 20260906164733 | 73 | 0 | 0.0 | 0.0 | 0.00 | 0.04 | 0.04 | 76 | 1013.7 |
| 20260906164447 | 73 | 17 | 0.0 | 0.0 | 0.00 | 0.04 | 0.04 | 76 | 1013.6 |
| 20260906163721 | 73 | 24 | 0.0 | 0.0 | 0.00 | 0.04 | 0.04 | 76 | 1013.4 |
| 20260906163215 | 73 | 35 | 0.0 | 0.0 | 0.00 | 0.04 | 0.04 | 75 | 1013.4 |
| 20260906162708 | 73 | 29 | 0.0 | 0.0 | 0.00 | 0.04 | 0.04 | 74 | 1013.4 |
| 20260906162202 | 73 | 28 | 0.0 | 0.0 | 0.00 | 0.04 | 0.04 | 74 | 1013.4 |
| 20260906161656 | 73 | 0 | 0.0 | 4.0 | 0.00 | 0.04 | 0.04 | 74 | 1013.4 |
| 20260906161419 | 73 | 0 | 0.0 | 4.0 | 0.00 | 0.04 | 0.04 | 73 | 1013.4 |
| 20260906160645 | 73 | 355 | 0.0 | 4.0 | 0.00 | 0.04 | 0.04 | 74 | 1013.4 |
| 20260906160139 | 73 | 344 | 0.0 | 4.0 | 0.00 | 0.04 | 0.04 | 73 | 1013.3 |
| 20260906155859 | 73 | 5 | 0.0 | 2.0 | 0.00 | 0.04 | 0.04 | 73 | 1013.4 |
| 20260906155126 | 73 | 355 | 0.0 | 2.0 | 0.00 | 0.04 | 0.04 | 72 | 1013.4 |
| 20260906154621 | 72 | 348 | 0.0 | 2.0 | 0.00 | 0.04 | 0.04 | 72 | 1013.4 |
| 20260906154115 | 72 | 5 | 0.0 | 0.0 | 0.00 | 0.04 | 0.04 | 73 | 1013.3 |
| 20260906153833 | 72 | 57 | 0.0 | 0.0 | 0.00 | 0.04 | 0.04 | 75 | 1013.2 |
| 20260906153103 | 72 | 60 | 0.0 | 0.0 | 0.00 | 0.04 | 0.04 | 75 | 1013.3 |
| 20260906152557 | 72 | 38 | 0.0 | 0.0 | 0.00 | 0.04 | 0.04 | 75 | 1013.3 |
| 20260906152051 | 72 | 9 | 0.0 | 0.0 | 0.00 | 0.04 | 0.04 | 76 | 1013.3 |
| 20260906151545 | 72 | 0 | 0.0 | 0.0 | 0.00 | 0.04 | 0.04 | 75 | 1013.3 |
| 20260906151039 | 72 | 332 | 0.0 | 0.0 | 0.00 | 0.04 | 0.04 | 74 | 1013.2 |
| 20260906150533 | 73 | 291 | 0.0 | 0.0 | 0.00 | 0.04 | 0.04 | 74 | 1013.1 |
| 20260906150027 | 73 | 355 | 0.0 | 0.0 | 0.00 | 0.04 | 0.04 | 73 | 1013.1 |
| 20260906145521 | 73 | 355 | 0.0 | 0.0 | 0.00 | 0.04 | 0.04 | 73 | 1013.0 |
| 20260906145016 | 74 | 313 | 0.0 | 0.0 | 0.00 | 0.04 | 0.04 | 72 | 1013.0 |
| 20260906144508 | 74 | 313 | 0.0 | 0.0 | 0.00 | 0.04 | 0.04 | 72 | 1013.1 |
| 20260906144004 | 74 | 313 | 0.0 | 0.0 | 0.00 | 0.04 | 0.04 | 71 | 1013.0 |
| 20260906143457 | 74 | 325 | 0.0 | 0.0 | 0.00 | 0.04 | 0.04 | 71 | 1012.9 |
| 20260906142951 | 74 | 279 | 0.0 | 0.0 | 0.00 | 0.04 | 0.04 | 72 | 1012.9 |
| 20260906142445 | 74 | 300 | 0.0 | 0.0 | 0.00 | 0.04 | 0.04 | 71 | 1012.9 |
| 20260906141939 | 74 | 309 | 0.0 | 0.0 | 0.00 | 0.04 | 0.04 | 70 | 1012.8 |
| 20260906141433 | 74 | 305 | 0.0 | 0.0 | 0.00 | 0.04 | 0.04 | 69 | 1012.8 |
| 20260906140926 | 74 | 309 | 0.0 | 0.0 | 0.00 | 0.04 | 0.04 | 68 | 1012.8 |
| 20260906140421 | 74 | 309 | 0.0 | 0.0 | 0.00 | 0.04 | 0.04 | 68 | 1012.7 |
| 20260906135915 | 74 | 309 | 0.0 | 0.0 | 0.00 | 0.04 | 0.04 | 68 | 1012.6 |
| 20260906135410 | 74 | 304 | 0.0 | 0.0 | 0.00 | 0.04 | 0.04 | 67 | 1012.5 |
| 20260906134903 | 74 | 298 | 0.0 | 0.0 | 0.00 | 0.04 | 0.04 | 67 | 1012.4 |
| 20260906134357 | 74 | 298 | 0.0 | 0.0 | 0.00 | 0.04 | 0.04 | 67 | 1012.4 |
| 20260906134113 | 74 | 297 | 0.0 | 0.0 | 0.00 | 0.04 | 0.04 | 67 | 1012.2 |
| 20260906133345 | 74 | 301 | 0.0 | 0.0 | 0.00 | 0.04 | 0.04 | 68 | 1012.1 |
| 20260906133101 | 74 | 5 | 0.0 | 0.0 | 0.00 | 0.04 | 0.04 | 67 | 1012.2 |
| 20260906132333 | 74 | 70 | 0.0 | 0.0 | 0.00 | 0.04 | 0.04 | 67 | 1012.1 |
| 20260906131827 | 73 | 301 | 0.0 | 0.0 | 0.00 | 0.04 | 0.04 | 67 | 1012.1 |
| 20260906131321 | 73 | 51 | 0.0 | 0.0 | 0.00 | 0.04 | 0.04 | 67 | 1012.1 |
| 20260906130815 | 73 | 51 | 0.0 | 0.0 | 0.00 | 0.04 | 0.04 | 68 | 1012.1 |
| 20260906130539 | 73 | 51 | 0.0 | 0.0 | 0.00 | 0.04 | 0.04 | 69 | 1012.0 |
| 20260906125803 | 73 | 51 | 0.0 | 0.0 | 0.00 | 0.04 | 0.04 | 69 | 1012.0 |
| 20260906125257 | 73 | 51 | 0.0 | 0.0 | 0.00 | 0.04 | 0.04 | 69 | 1012.0 |
| 20260906124751 | 73 | 51 | 0.0 | 0.0 | 0.00 | 0.04 | 0.04 | 69 | 1012.1 |
| 20260906124245 | 73 | 51 | 0.0 | 0.0 | 0.00 | 0.04 | 0.04 | 70 | 1012.0 |
| 20260906123740 | 73 | 51 | 0.0 | 0.0 | 0.00 | 0.04 | 0.04 | 69 | 1012.0 |
| 20260906123232 | 73 | 51 | 0.0 | 0.0 | 0.00 | 0.04 | 0.04 | 69 | 1012.0 |
| 20260906122727 | 72 | 51 | 0.0 | 0.0 | 0.00 | 0.04 | 0.04 | 69 | 1012.1 |
| 20260906122220 | 72 | 51 | 0.0 | 0.0 | 0.00 | 0.04 | 0.04 | 68 | 1012.0 |
| 20260906121715 | 72 | 51 | 0.0 | 0.0 | 0.00 | 0.04 | 0.04 | 68 | 1012.1 |
| 20260906121209 | 72 | 51 | 0.0 | 0.0 | 0.00 | 0.04 | 0.04 | 69 | 1012.1 |
| 20260906120703 | 72 | 51 | 0.0 | 0.0 | 0.00 | 0.04 | 0.04 | 68 | 1012.1 |
| 20260906120157 | 73 | 51 | 0.0 | 0.0 | 0.00 | 0.04 | 0.04 | 69 | 1012.0 |
| 20260906115651 | 73 | 51 | 0.0 | 0.0 | 0.00 | 0.04 | 0.04 | 70 | 1012.0 |
| 20260906115146 | 73 | 51 | 0.0 | 0.0 | 0.00 | 0.04 | 0.04 | 69 | 1012.1 |
| 20260906114639 | 72 | 51 | 0.0 | 0.0 | 0.00 | 0.04 | 0.04 | 69 | 1012.2 |
| 20260906114134 | 72 | 51 | 0.0 | 0.0 | 0.00 | 0.04 | 0.04 | 69 | 1012.0 |
| 20260906113626 | 72 | 70 | 0.0 | 0.0 | 0.00 | 0.04 | 0.04 | 67 | 1012.2 |
| 20260906113120 | 73 | 70 | 0.0 | 0.0 | 0.00 | 0.04 | 0.04 | 69 | 1012.3 |
| 20260906112834 | 73 | 70 | 0.0 | 0.0 | 0.00 | 0.04 | 0.04 | 67 | 1012.2 |
| 20260906112109 | 73 | 70 | 0.0 | 0.0 | 0.00 | 0.04 | 0.04 | 66 | 1012.1 |
| 20260906111603 | 73 | 69 | 0.0 | 0.0 | 0.00 | 0.04 | 0.04 | 65 | 1012.3 |
| 20260906111057 | 73 | 196 | 0.0 | 0.0 | 0.00 | 0.04 | 0.04 | 63 | 1012.4 |
| 20260906110551 | 73 | 196 | 0.0 | 0.0 | 0.00 | 0.04 | 0.04 | 65 | 1012.4 |
| 20260906110046 | 73 | 196 | 0.0 | 0.0 | 0.00 | 0.04 | 0.04 | 63 | 1012.4 |
| 20260906105539 | 74 | 196 | 0.0 | 0.0 | 0.00 | 0.04 | 0.04 | 63 | 1012.4 |
| 20260906105033 | 74 | 196 | 0.0 | 0.0 | 0.00 | 0.04 | 0.04 | 62 | 1012.4 |
| 20260906104526 | 74 | 196 | 0.0 | 0.0 | 0.00 | 0.04 | 0.04 | 61 | 1012.2 |
| 20260906104021 | 74 | 196 | 0.0 | 0.0 | 0.00 | 0.04 | 0.04 | 64 | 1012.3 |
| 20260906103515 | 74 | 196 | 0.0 | 0.0 | 0.00 | 0.04 | 0.04 | 59 | 1012.3 |
| 20260906103010 | 75 | 196 | 0.0 | 0.0 | 0.00 | 0.04 | 0.04 | 60 | 1012.3 |
| 20260906102503 | 74 | 196 | 0.0 | 0.0 | 0.00 | 0.04 | 0.04 | 57 | 1012.3 |
| 20260906101957 | 74 | 196 | 0.0 | 0.0 | 0.00 | 0.04 | 0.04 | 58 | 1012.4 |
| 20260906101451 | 74 | 196 | 0.0 | 0.0 | 0.00 | 0.04 | 0.04 | 59 | 1012.3 |
| 20260906100945 | 74 | 196 | 0.0 | 0.0 | 0.00 | 0.04 | 0.04 | 58 | 1012.4 |
| 20260906100439 | 73 | 196 | 0.0 | 0.0 | 0.00 | 0.04 | 0.04 | 60 | 1012.3 |
| 20260906095933 | 72 | 196 | 0.0 | 0.0 | 0.01 | 0.04 | 0.04 | 63 | 1012.3 |
| 20260906095427 | 72 | 196 | 0.0 | 0.0 | 0.02 | 0.04 | 0.04 | 61 | 1012.1 |
| 20260906094921 | 72 | 196 | 0.0 | 0.0 | 0.03 | 0.04 | 0.04 | 63 | 1012.1 |
| 20260906094645 | 71 | 196 | 0.0 | 0.0 | 0.03 | 0.04 | 0.04 | 63 | 1012.3 |
| 20260906094129 | 71 | 196 | 0.0 | 0.0 | 0.04 | 0.04 | 0.04 | 64 | 1012.4 |
| 20260906093403 | 70 | 196 | 0.0 | 0.0 | 0.04 | 0.04 | 0.04 | 64 | 1012.4 |
| 20260906092858 | 69 | 196 | 0.0 | 0.0 | 0.04 | 0.04 | 0.04 | 67 | 1012.4 |
| 20260906092351 | 69 | 196 | 0.0 | 0.0 | 0.04 | 0.04 | 0.04 | 67 | 1012.4 |
| 20260906091846 | 70 | 196 | 0.0 | 0.0 | 0.04 | 0.04 | 0.04 | 65 | 1012.5 |
| 20260906091339 | 70 | 196 | 0.0 | 0.0 | 0.04 | 0.04 | 0.04 | 66 | 1012.3 |
| 20260906090833 | 70 | 196 | 0.0 | 0.0 | 0.04 | 0.04 | 0.04 | 66 | 1012.4 |
| 20260906090546 | 71 | 196 | 0.0 | 0.0 | 0.03 | 0.03 | 0.04 | 64 | 1012.5 |
| 20260906085821 | 71 | 196 | 0.0 | 0.0 | 0.03 | 0.03 | 0.03 | 58 | 1012.5 |
| 20260906085315 | 71 | 196 | 0.0 | 0.0 | 0.02 | 0.02 | 0.02 | 48 | 1012.7 |
| 20260906084809 | 72 | 188 | 0.0 | 0.0 | 0.01 | 0.01 | 0.01 | 45 | 1012.8 |
| 20260906084304 | 73 | 192 | 0.0 | 0.0 | 0.01 | 0.01 | 0.01 | 43 | 1012.8 |
| 20260906083757 | 74 | 172 | 0.0 | 0.0 | 0.00 | 0.00 | 0.00 | 45 | 1012.8 |
| 20260906083251 | 74 | 165 | 0.0 | 0.0 | 0.00 | 0.00 | 0.00 | 42 | 1012.8 |
| 20260906082746 | 75 | 173 | 0.0 | 0.0 | 0.00 | 0.00 | 0.00 | 38 | 1012.7 |
| 20260906082239 | 75 | 188 | 0.0 | 0.0 | 0.00 | 0.00 | 0.00 | 35 | 1012.6 |
| 20260906081733 | 76 | 188 | 0.0 | 0.0 | 0.00 | 0.00 | 0.00 | 39 | 1012.8 |
| 20260906081227 | 76 | 188 | 0.0 | 0.0 | 0.00 | 0.00 | 0.00 | 36 | 1012.8 |
| 20260906080722 | 77 | 175 | 0.0 | 0.0 | 0.00 | 0.00 | 0.00 | 35 | 1012.9 |
| 20260906080215 | 77 | 181 | 0.0 | 0.0 | 0.00 | 0.00 | 0.00 | 34 | 1012.8 |
| 20260906075710 | 77 | 192 | 0.0 | 0.0 | 0.00 | 0.00 | 0.00 | 29 | 1012.7 |
| 20260906075203 | 77 | 182 | 0.0 | 0.0 | 0.00 | 0.00 | 0.00 | 27 | 1012.7 |
| 20260906074701 | 77 | 182 | 0.0 | 0.0 | 0.00 | 0.00 | 0.00 | 26 | 1012.7 |
| 20260906074151 | 77 | 173 | 0.0 | 0.0 | 0.00 | 0.00 | 0.00 | 24 | 1012.7 |
| 20260906073907 | 77 | 169 | 0.0 | 0.0 | 0.00 | 0.00 | 0.00 | 25 | 1012.7 |
| 20260906073142 | 78 | 173 | 0.0 | 0.0 | 0.00 | 0.00 | 0.00 | 24 | 1012.8 |
| 20260906072636 | 78 | 175 | 0.0 | 0.0 | 0.00 | 0.00 | 0.00 | 24 | 1012.8 |
| 20260906072128 | 78 | 200 | 0.0 | 0.0 | 0.00 | 0.00 | 0.00 | 23 | 1012.7 |
| 20260906071621 | 78 | 186 | 0.0 | 0.0 | 0.00 | 0.00 | 0.00 | 22 | 1012.7 |
| 20260906071116 | 78 | 190 | 0.0 | 0.0 | 0.00 | 0.00 | 0.00 | 22 | 1012.6 |
| 20260906070609 | 78 | 190 | 0.0 | 0.0 | 0.00 | 0.00 | 0.00 | 22 | 1012.5 |
| 20260906065556 | 78 | 184 | 0.0 | 0.0 | 0.00 | 0.00 | 0.00 | 23 | 1012.5 |
| 20260906065247 | 78 | 184 | 0.0 | 0.0 | 0.00 | 0.00 | 0.00 | 22 | 1012.5 |
| 20260906065140 | 78 | 184 | 0.0 | 0.0 | 0.00 | 0.00 | 0.00 | 23 | 1012.5 |
| 20260906064040 | 78 | 178 | 0.0 | 0.0 | 0.00 | 0.00 | 0.00 | 22 | 1012.5 |
| 20260906063535 | 78 | 91 | 0.0 | 0.0 | 0.00 | 0.00 | 0.00 | 22 | 1012.6 |
| 20260906063026 | 78 | 91 | 0.0 | 0.0 | 0.00 | 0.00 | 0.00 | 20 | 1012.5 |
| 20260906062520 | 78 | 91 | 0.0 | 0.0 | 0.00 | 0.00 | 0.00 | 22 | 1012.5 |
| 20260906062245 | 78 | 91 | 0.0 | 0.0 | 0.00 | 0.00 | 0.00 | 22 | 1012.6 |
| 20260906061735 | 78 | 91 | 0.0 | 0.0 | 0.00 | 0.00 | 0.00 | 23 | 1012.5 |
| 20260906061004 | 78 | 91 | 0.0 | 0.0 | 0.00 | 0.00 | 0.00 | 22 | 1012.5 |
| 20260906060456 | 78 | 91 | 0.0 | 0.0 | 0.00 | 0.00 | 0.00 | 23 | 1012.5 |
| 20260906055950 | 78 | 91 | 0.0 | 0.0 | 0.00 | 0.00 | 0.00 | 23 | 1012.4 |
| 20260906055444 | 78 | 91 | 0.0 | 0.0 | 0.00 | 0.00 | 0.00 | 22 | 1012.5 |
| 20260906054939 | 78 | 91 | 0.0 | 0.0 | 0.00 | 0.00 | 0.00 | 20 | 1012.7 |
| 20260906054432 | 78 | 91 | 0.0 | 0.0 | 0.00 | 0.00 | 0.00 | 20 | 1012.5 |
| 20260906053926 | 78 | 87 | 0.0 | 0.0 | 0.00 | 0.00 | 0.00 | 20 | 1012.7 |
| 20260906053420 | 78 | 87 | 0.0 | 0.0 | 0.00 | 0.00 | 0.00 | 19 | 1012.6 |
| 20260906052914 | 78 | 87 | 0.0 | 0.0 | 0.00 | 0.00 | 0.00 | 19 | 1012.5 |
| 20260906052408 | 77 | 87 | 0.0 | 0.0 | 0.00 | 0.00 | 0.00 | 24 | 1012.6 |
| 20260906051902 | 77 | 87 | 0.0 | 0.0 | 0.00 | 0.00 | 0.00 | 23 | 1012.5 |
| 20260906051615 | 77 | 87 | 0.0 | 0.0 | 0.00 | 0.00 | 0.00 | 25 | 1012.6 |
| 20260906051336 | 77 | 87 | 0.0 | 0.0 | 0.00 | 0.00 | 0.00 | 26 | 1012.6 |
| 20260906050344 | 77 | 87 | 0.0 | 0.0 | 0.00 | 0.00 | 0.00 | 27 | 1012.7 |
| 20260906045838 | 77 | 87 | 0.0 | 0.0 | 0.00 | 0.00 | 0.00 | 27 | 1012.7 |
| 20260906045332 | 77 | 83 | 0.0 | 0.0 | 0.00 | 0.00 | 0.00 | 25 | 1012.8 |
| 20260906045046 | 77 | 83 | 0.0 | 0.0 | 0.00 | 0.00 | 0.00 | 24 | 1012.8 |
| 20260906044320 | 77 | 83 | 0.0 | 0.0 | 0.00 | 0.00 | 0.00 | 23 | 1012.8 |
| 20260906043814 | 76 | 83 | 0.0 | 0.0 | 0.00 | 0.00 | 0.00 | 23 | 1012.8 |
| 20260906043308 | 76 | 83 | 0.0 | 0.0 | 0.00 | 0.00 | 0.00 | 24 | 1012.8 |
| 20260906042803 | 76 | 83 | 0.0 | 0.0 | 0.00 | 0.00 | 0.00 | 24 | 1012.8 |
| 20260906042519 | 76 | 83 | 0.0 | 0.0 | 0.00 | 0.00 | 0.00 | 24 | 1012.8 |
| 20260906041750 | 76 | 83 | 0.0 | 0.0 | 0.00 | 0.00 | 0.00 | 30 | 1012.8 |
| 20260906041244 | 76 | 83 | 0.0 | 0.0 | 0.00 | 0.00 | 0.00 | 27 | 1012.7 |
| 20260906040738 | 76 | 83 | 0.0 | 0.0 | 0.00 | 0.00 | 0.00 | 31 | 1012.6 |
| 20260906040232 | 77 | 83 | 0.0 | 0.0 | 0.00 | 0.00 | 0.00 | 33 | 1012.5 |
| 20260906035726 | 77 | 59 | 0.0 | 0.0 | 0.00 | 0.00 | 0.00 | 25 | 1012.6 |
| 20260906035220 | 76 | 278 | 0.0 | 0.0 | 0.00 | 0.00 | 0.00 | 25 | 1012.6 |
| 20260906034932 | 76 | 278 | 0.0 | 0.0 | 0.00 | 0.00 | 0.00 | 31 | 1012.6 |
| 20260906034208 | 76 | 278 | 0.0 | 0.0 | 0.00 | 0.00 | 0.00 | 35 | 1012.6 |
| 20260906033703 | 77 | 278 | 0.0 | 0.0 | 0.00 | 0.00 | 0.00 | 34 | 1012.5 |
| 20260906033156 | 77 | 278 | 0.0 | 0.0 | 0.00 | 0.00 | 0.00 | 30 | 1012.5 |
| 20260906032653 | 77 | 278 | 0.0 | 0.0 | 0.00 | 0.00 | 0.00 | 31 | 1012.6 |
| 20260906032149 | 77 | 276 | 0.0 | 0.0 | 0.00 | 0.00 | 0.00 | 30 | 1012.6 |
| 20260906031650 | 77 | 299 | 0.0 | 0.0 | 0.00 | 0.00 | 0.00 | 31 | 1012.6 |
| 20260906031147 | 77 | 303 | 0.0 | 0.0 | 0.00 | 0.00 | 0.00 | 34 | 1012.5 |
| 20260906030645 | 77 | 303 | 0.0 | 0.0 | 0.00 | 0.00 | 0.00 | 34 | 1012.6 |
| 20260906030146 | 77 | 303 | 0.0 | 0.0 | 0.00 | 0.00 | 0.00 | 36 | 1012.6 |
| 20260906025647 | 78 | 323 | 0.0 | 0.0 | 0.00 | 0.00 | 0.00 | 36 | 1012.5 |
| 20260906025143 | 78 | 271 | 0.0 | 0.0 | 0.00 | 0.00 | 0.00 | 37 | 1012.5 |
| 20260906024643 | 79 | 313 | 0.0 | 0.0 | 0.00 | 0.00 | 0.00 | 35 | 1012.4 |
| 20260906024145 | 79 | 273 | 0.0 | 0.0 | 0.00 | 0.00 | 0.00 | 34 | 1012.4 |
| 20260906023648 | 80 | 264 | 0.0 | 0.0 | 0.00 | 0.00 | 0.00 | 30 | 1012.3 |
| 20260906023145 | 80 | 264 | 0.0 | 0.0 | 0.00 | 0.00 | 0.00 | 30 | 1012.3 |
| 20260906022643 | 80 | 264 | 0.0 | 0.0 | 0.00 | 0.00 | 0.00 | 29 | 1012.3 |
| 20260906022141 | 80 | 264 | 0.0 | 0.0 | 0.00 | 0.00 | 0.00 | 29 | 1012.3 |
| 20260906021642 | 81 | 284 | 0.0 | 0.0 | 0.00 | 0.00 | 0.00 | 27 | 1012.3 |
| 20260906021401 | 81 | 219 | 0.0 | 0.0 | 0.00 | 0.00 | 0.00 | 28 | 1012.2 |
| 20260906020643 | 82 | 315 | 0.0 | 0.0 | 0.00 | 0.00 | 0.00 | 29 | 1012.3 |
| 20260906020137 | 82 | 274 | 0.0 | 1.0 | 0.00 | 0.00 | 0.00 | 31 | 1012.2 |
| 20260906015629 | 82 | 271 | 0.0 | 1.0 | 0.00 | 0.00 | 0.00 | 32 | 1012.1 |
| 20260906015128 | 83 | 217 | 0.0 | 2.0 | 0.00 | 0.00 | 0.00 | 33 | 1012.1 |
| 20260906014629 | 83 | 238 | 0.0 | 2.0 | 0.00 | 0.00 | 0.00 | 33 | 1012.2 |
| 20260906014129 | 84 | 222 | 0.0 | 5.0 | 0.00 | 0.00 | 0.00 | 34 | 1012.3 |
| 20260906013625 | 84 | 278 | 0.0 | 5.0 | 0.00 | 0.00 | 0.00 | 35 | 1012.2 |
| 20260906013127 | 85 | 232 | 0.0 | 5.0 | 0.00 | 0.00 | 0.00 | 36 | 1012.2 |
| 20260906012627 | 85 | 232 | 0.0 | 5.0 | 0.00 | 0.00 | 0.00 | 35 | 1012.2 |
| 20260906012126 | 86 | 241 | 0.0 | 5.0 | 0.00 | 0.00 | 0.00 | 36 | 1012.2 |
| 20260906011626 | 86 | 217 | 0.0 | 6.0 | 0.00 | 0.00 | 0.00 | 36 | 1012.3 |
| 20260906011127 | 86 | 253 | 1.0 | 6.0 | 0.00 | 0.00 | 0.00 | 36 | 1012.2 |
| 20260906010621 | 87 | 221 | 1.0 | 6.0 | 0.00 | 0.00 | 0.00 | 36 | 1012.0 |
| 20260906010104 | 87 | 202 | 1.0 | 6.0 | 0.00 | 0.00 | 0.00 | 35 | 1012.2 |
| 20260906005604 | 87 | 193 | 0.0 | 4.0 | 0.00 | 0.00 | 0.00 | 36 | 1012.2 |
| 20260906005104 | 87 | 246 | 0.0 | 4.0 | 0.00 | 0.00 | 0.00 | 37 | 1012.0 |
| 20260906004601 | 87 | 239 | 0.0 | 4.0 | 0.00 | 0.00 | 0.00 | 37 | 1012.1 |
| 20260906004103 | 87 | 249 | 0.0 | 4.0 | 0.00 | 0.00 | 0.00 | 37 | 1012.1 |
| 20260906003821 | 87 | 240 | 0.0 | 4.0 | 0.00 | 0.00 | 0.00 | 35 | 1012.1 |
| 20260906003059 | 87 | 221 | 1.0 | 7.0 | 0.00 | 0.00 | 0.00 | 37 | 1012.1 |
| 20260906002559 | 87 | 211 | 1.0 | 7.0 | 0.00 | 0.00 | 0.00 | 39 | 1012.0 |
| 20260906002059 | 87 | 244 | 1.0 | 8.0 | 0.00 | 0.00 | 0.00 | 38 | 1012.1 |
| 20260906001828 | 87 | 238 | 2.0 | 9.0 | 0.00 | 0.00 | 0.00 | 38 | 1012.1 |
| 20260906001320 | 88 | 211 | 2.0 | 9.0 | 0.00 | 0.00 | 0.00 | 36 | 1012.1 |
| 20260906000558 | 88 | 242 | 4.0 | 10.0 | 0.00 | 0.00 | 0.00 | 35 | 1012.2 |
| 20260906000055 | 88 | 215 | 4.0 | 10.0 | 0.00 | 0.00 | 0.00 | 35 | 1012.1 |
| 20260905235556 | 88 | 229 | 2.0 | 9.0 | 0.00 | 0.00 | 0.00 | 32 | 1012.1 |
| 20260905235056 | 89 | 238 | 2.0 | 8.0 | 0.00 | 0.00 | 0.00 | 32 | 1012.1 |
| 20260905234557 | 89 | 189 | 2.0 | 9.0 | 0.00 | 0.00 | 0.00 | 36 | 1012.0 |
| 20260905234058 | 89 | 232 | 2.0 | 9.0 | 0.00 | 0.00 | 0.00 | 35 | 1012.0 |
| 20260905233558 | 89 | 223 | 1.0 | 7.0 | 0.00 | 0.00 | 0.00 | 34 | 1012.0 |
| 20260905233057 | 89 | 266 | 1.0 | 10.0 | 0.00 | 0.00 | 0.00 | 36 | 1012.1 |
| 20260905232552 | 89 | 209 | 3.0 | 10.0 | 0.00 | 0.00 | 0.00 | 37 | 1012.0 |
| 20260905232053 | 89 | 213 | 3.0 | 10.0 | 0.00 | 0.00 | 0.00 | 37 | 1012.0 |
| 20260905231553 | 89 | 234 | 3.0 | 10.0 | 0.00 | 0.00 | 0.00 | 36 | 1011.9 |
| 20260905231053 | 90 | 242 | 2.0 | 8.0 | 0.00 | 0.00 | 0.00 | 35 | 1012.0 |
| 20260905230551 | 90 | 229 | 2.0 | 10.0 | 0.00 | 0.00 | 0.00 | 36 | 1012.0 |
| 20260905230052 | 89 | 221 | 3.0 | 10.0 | 0.00 | 0.00 | 0.00 | 36 | 1012.1 |
| 20260905225552 | 89 | 217 | 3.0 | 10.0 | 0.00 | 0.00 | 0.00 | 34 | 1012.2 |
| 20260905225051 | 89 | 230 | 4.0 | 10.0 | 0.00 | 0.00 | 0.00 | 35 | 1012.2 |
| 20260905224553 | 89 | 264 | 4.0 | 10.0 | 0.00 | 0.00 | 0.00 | 35 | 1012.3 |
| 20260905224049 | 90 | 219 | 3.0 | 11.0 | 0.00 | 0.00 | 0.00 | 36 | 1012.3 |
| 20260905223814 | 90 | 215 | 3.0 | 11.0 | 0.00 | 0.00 | 0.00 | 36 | 1012.3 |
| 20260905223050 | 89 | 319 | 4.0 | 11.0 | 0.00 | 0.00 | 0.00 | 37 | 1012.3 |
| 20260905222549 | 90 | 206 | 4.0 | 11.0 | 0.00 | 0.00 | 0.00 | 37 | 1012.3 |
| 20260905222048 | 90 | 226 | 5.0 | 11.0 | 0.00 | 0.00 | 0.00 | 36 | 1012.5 |
| 20260905221547 | 90 | 257 | 4.0 | 11.0 | 0.00 | 0.00 | 0.00 | 34 | 1012.4 |
| 20260905221048 | 90 | 238 | 4.0 | 10.0 | 0.00 | 0.00 | 0.00 | 33 | 1012.5 |
| 20260905220549 | 91 | 229 | 4.0 | 10.0 | 0.00 | 0.00 | 0.00 | 34 | 1012.5 |
| 20260905220049 | 91 | 213 | 1.0 | 9.0 | 0.00 | 0.00 | 0.00 | 31 | 1012.5 |
| 20260905215544 | 91 | 203 | 1.0 | 8.0 | 0.00 | 0.00 | 0.00 | 31 | 1012.5 |
| 20260905215044 | 91 | 140 | 1.0 | 8.0 | 0.00 | 0.00 | 0.00 | 32 | 1012.6 |
| 20260905214809 | 91 | 211 | 1.0 | 8.0 | 0.00 | 0.00 | 0.00 | 33 | 1012.6 |
| 20260905214044 | 91 | 286 | 1.0 | 8.0 | 0.00 | 0.00 | 0.00 | 33 | 1012.7 |
| 20260905213543 | 91 | 257 | 1.0 | 8.0 | 0.00 | 0.00 | 0.00 | 32 | 1012.7 |
| 20260905213045 | 90 | 220 | 1.0 | 9.0 | 0.00 | 0.00 | 0.00 | 33 | 1012.7 |
| 20260905212545 | 90 | 204 | 2.0 | 9.0 | 0.00 | 0.00 | 0.00 | 33 | 1012.7 |
| 20260905212045 | 90 | 193 | 2.0 | 10.0 | 0.00 | 0.00 | 0.00 | 34 | 1012.8 |
| 20260905211545 | 90 | 235 | 2.0 | 10.0 | 0.00 | 0.00 | 0.00 | 33 | 1012.9 |
| 20260905211233 | 90 | 214 | 0.0 | 5.0 | 0.00 | 0.00 | 0.00 | 29 | 1013.0 |
| 20260905211124 | 90 | 230 | 1.0 | 8.0 | 0.00 | 0.00 | 0.00 | 30 | 1013.0 |
| 20260905210039 | 90 | 213 | 0.0 | 6.0 | 0.00 | 0.00 | 0.00 | 28 | 1012.9 |
| 20260905205541 | 90 | 251 | 0.0 | 6.0 | 0.00 | 0.00 | 0.00 | 31 | 1013.1 |
| 20260905205040 | 89 | 121 | 0.0 | 6.0 | 0.00 | 0.00 | 0.00 | 29 | 1013.1 |
| 20260905204540 | 89 | 333 | 0.0 | 6.0 | 0.00 | 0.00 | 0.00 | 32 | 1013.2 |
| 20260905204039 | 89 | 162 | 0.0 | 3.0 | 0.00 | 0.00 | 0.00 | 28 | 1013.1 |
| 20260905203540 | 89 | 180 | 0.0 | 3.0 | 0.00 | 0.00 | 0.00 | 27 | 1013.2 |
| 20260905203041 | 89 | 211 | 0.0 | 3.0 | 0.00 | 0.00 | 0.00 | 25 | 1013.1 |
| 20260905202536 | 89 | 121 | 0.0 | 3.0 | 0.00 | 0.00 | 0.00 | 22 | 1013.2 |
| 20260905202038 | 89 | 216 | 0.0 | 3.0 | 0.00 | 0.00 | 0.00 | 22 | 1013.2 |
| 20260905201535 | 89 | 277 | 0.0 | 3.0 | 0.00 | 0.00 | 0.00 | 20 | 1013.4 |
| 20260905201037 | 89 | 109 | 0.0 | 3.0 | 0.00 | 0.00 | 0.00 | 17 | 1013.6 |
| 20260905200536 | 88 | 209 | 0.0 | 3.0 | 0.00 | 0.00 | 0.00 | 18 | 1013.7 |
| 20260905200036 | 88 | 355 | 0.0 | 2.0 | 0.00 | 0.00 | 0.00 | 16 | 1013.7 |
| 20260905195535 | 88 | 229 | 0.0 | 2.0 | 0.00 | 0.00 | 0.00 | 17 | 1013.7 |
| 20260905195259 | 87 | 212 | 0.0 | 2.0 | 0.00 | 0.00 | 0.00 | 16 | 1013.8 |
| 20260905194537 | 87 | 113 | 0.0 | 6.0 | 0.00 | 0.00 | 0.00 | 17 | 1013.9 |
| 20260905194033 | 86 | 221 | 0.0 | 6.0 | 0.00 | 0.00 | 0.00 | 16 | 1013.9 |
| 20260905193749 | 86 | 215 | 0.0 | 7.0 | 0.00 | 0.00 | 0.00 | 16 | 1014.0 |
| 20260905193033 | 86 | 221 | 0.0 | 7.0 | 0.00 | 0.00 | 0.00 | 16 | 1014.1 |
| 20260905192532 | 86 | 163 | 0.0 | 4.0 | 0.00 | 0.00 | 0.00 | 16 | 1014.0 |
| 20260905192032 | 86 | 133 | 0.0 | 4.0 | 0.00 | 0.00 | 0.00 | 16 | 1014.1 |
| 20260905191757 | 86 | 175 | 0.0 | 3.0 | 0.00 | 0.00 | 0.00 | 16 | 1014.1 |
| 20260905191036 | 85 | 101 | 0.0 | 3.0 | 0.00 | 0.00 | 0.00 | 16 | 1014.1 |
| 20260905190534 | 85 | 152 | 0.0 | 3.0 | 0.00 | 0.00 | 0.00 | 16 | 1014.0 |
| 20260905190039 | 85 | 180 | 0.0 | 6.0 | 0.00 | 0.00 | 0.00 | 15 | 1014.1 |
| 20260905185532 | 85 | 202 | 1.0 | 6.0 | 0.00 | 0.00 | 0.00 | 15 | 1014.1 |
| 20260905185030 | 85 | 188 | 1.0 | 6.0 | 0.00 | 0.00 | 0.00 | 16 | 1014.1 |
| 20260905184530 | 85 | 242 | 1.0 | 6.0 | 0.00 | 0.00 | 0.00 | 16 | 1014.1 |
| 20260905184251 | 85 | 178 | 0.0 | 5.0 | 0.00 | 0.00 | 0.00 | 16 | 1014.2 |
| 20260905183529 | 85 | 227 | 1.0 | 5.0 | 0.00 | 0.00 | 0.00 | 16 | 1014.2 |
| 20260905183028 | 85 | 242 | 1.0 | 5.0 | 0.00 | 0.00 | 0.00 | 15 | 1014.3 |
| 20260905182750 | 84 | 250 | 0.0 | 4.0 | 0.00 | 0.00 | 0.00 | 15 | 1014.3 |
| 20260905182028 | 84 | 121 | 0.0 | 7.0 | 0.00 | 0.00 | 0.00 | 15 | 1014.3 |
| 20260905181529 | 84 | 148 | 1.0 | 7.0 | 0.00 | 0.00 | 0.00 | 15 | 1014.4 |
| 20260905181024 | 84 | 88 | 1.0 | 8.0 | 0.00 | 0.00 | 0.00 | 15 | 1014.4 |
| 20260905180524 | 83 | 179 | 1.0 | 8.0 | 0.00 | 0.00 | 0.00 | 15 | 1014.4 |
| 20260905180025 | 83 | 117 | 1.0 | 8.0 | 0.00 | 0.00 | 0.00 | 14 | 1014.3 |
| 20260905175746 | 83 | 152 | 1.0 | 8.0 | 0.00 | 0.00 | 0.00 | 14 | 1014.3 |
| 20260905175023 | 83 | 159 | 0.0 | 6.0 | 0.00 | 0.00 | 0.00 | 13 | 1014.3 |